EW5773 Weather Reports


Display with metric or nautical units.
time (UTC)temp
F
wind
direction
speed
MPH
gust
MPH
rain 1hr
in
rain 24hr
in
rain mn
in
humidity
%
barometer
mb
20260906171503 81 36 2.0 4.0 0.00 0.00 0.00 42 1018.6
20260906170014 81 36 2.0 4.0 0.00 0.00 0.00 41 1018.5
20260906164602 81 36 1.0 4.0 0.00 0.00 0.00 41 1018.7
20260906163020 81 36 2.0 4.0 0.00 0.00 0.00 40 1018.8
20260906161513 81 32 1.0 4.0 0.00 0.00 0.00 40 1018.9
20260906160014 81 32 1.0 4.0 0.00 0.00 0.00 39 1019.0
20260906154515 81 24 0.0 6.0 0.00 0.00 0.00 39 1018.9
20260906153013 81 86 1.0 12.0 0.00 0.00 0.00 39 1018.6
20260906151512 81 76 7.0 19.0 0.00 0.00 0.00 38 1018.8
20260906150116 82 98 4.0 14.0 0.00 0.00 0.00 37 1019.1
20260906144508 82 86 5.0 12.0 0.00 0.00 0.00 36 1019.2
20260906143007 83 84 3.0 11.0 0.00 0.00 0.00 36 1019.2
20260906141506 83 82 4.0 13.0 0.00 0.00 0.00 36 1019.4
20260906140012 83 61 4.0 11.0 0.00 0.00 0.00 36 1019.5
20260906134505 83 89 5.0 18.0 0.00 0.00 0.00 36 1019.7
20260906133005 82 78 6.0 14.0 0.00 0.00 0.00 37 1019.9
20260906131604 82 96 7.0 14.0 0.00 0.00 0.00 37 1020.4
20260906130001 82 84 7.0 13.0 0.00 0.00 0.00 38 1020.4
20260906123026 81 84 6.0 13.0 0.00 0.00 0.00 40 1020.8
20260906121525 81 84 7.0 13.0 0.00 0.00 0.00 40 1020.9
20260906120015 78 74 6.0 13.0 0.00 0.00 0.00 42 1020.9
20260906114532 77 94 5.0 11.0 0.00 0.00 0.00 43 1021.0
20260906113012 77 71 7.0 14.0 0.00 0.00 0.00 43 1020.9
20260906111518 77 82 4.0 15.0 0.00 0.00 0.00 44 1020.8
20260906110012 77 86 7.0 15.0 0.00 0.00 0.00 44 1020.7
20260906104513 76 76 3.0 15.0 0.00 0.00 0.00 45 1021.0
20260906103009 76 77 7.0 15.0 0.00 0.00 0.00 45 1021.0
20260906101508 76 84 8.0 14.0 0.00 0.00 0.00 46 1021.4
20260906100008 75 87 5.0 10.0 0.00 0.00 0.00 49 1021.7
20260906094506 73 80 6.0 12.0 0.00 0.00 0.00 51 1022.1
20260906093004 73 75 4.0 11.0 0.00 0.00 0.00 52 1022.2
20260906091514 72 74 4.0 11.0 0.00 0.00 0.00 53 1022.1
20260906090112 70 79 4.0 10.0 0.00 0.00 0.00 56 1022.2
20260906084530 69 70 3.0 9.0 0.00 0.00 0.00 58 1022.4
20260906083025 67 40 4.0 7.0 0.00 0.00 0.00 60 1022.6
20260906081501 66 92 3.0 11.0 0.00 0.00 0.00 62 1022.6
20260906080022 65 79 4.0 10.0 0.00 0.00 0.00 63 1022.8
20260906074519 64 84 1.0 9.0 0.00 0.00 0.00 65 1022.9
20260906073018 64 84 5.0 11.0 0.00 0.00 0.00 64 1022.6
20260906071514 64 56 6.0 11.0 0.00 0.00 0.00 65 1022.7
20260906064552 61 82 4.0 12.0 0.00 0.00 0.00 70 1023.0
20260906063052 60 69 4.0 11.0 0.00 0.00 0.00 72 1023.0
20260906061515 58 48 1.0 4.0 0.00 0.00 0.00 76 1023.1
20260906060014 58 40 4.0 7.0 0.00 0.00 0.00 75 1022.9
20260906054517 57 55 2.0 6.0 0.00 0.00 0.00 76 1023.1
20260906053016 57 71 1.0 9.0 0.00 0.00 0.00 77 1023.1
20260906051516 57 68 2.0 10.0 0.00 0.00 0.00 78 1023.0
20260906050117 57 40 1.0 4.0 0.00 0.00 0.00 78 1023.2
20260906044510 56 40 1.0 3.0 0.00 0.00 0.00 79 1023.5
20260906043011 56 37 0.0 4.0 0.00 0.00 0.00 79 1023.4
20260906041509 57 36 0.0 3.0 0.00 0.00 0.00 79 1023.2
20260906040012 57 37 1.0 4.0 0.00 0.00 0.00 79 1023.4
20260906034506 56 36 1.0 5.0 0.00 0.00 0.00 79 1023.4
20260906033006 57 36 2.0 9.0 0.00 0.00 0.00 79 1023.3
20260906031506 57 32 3.0 6.0 0.00 0.00 0.00 79 1023.3
20260906030005 56 22 2.0 5.0 0.00 0.00 0.00 79 1023.7
20260906024504 57 15 1.0 4.0 0.00 0.00 0.00 79 1023.9
20260906023004 57 15 2.0 4.0 0.00 0.00 0.00 78 1024.1
20260906021503 57 13 2.0 4.0 0.00 0.00 0.00 78 1024.1
20260906020003 57 13 1.0 3.0 0.00 0.00 0.00 77 1024.1
20260906014524 57 13 2.0 4.0 0.00 0.00 0.00 77 1024.1
20260906013019 57 13 2.0 5.0 0.00 0.00 0.00 76 1024.2
20260906011517 57 11 2.0 5.0 0.00 0.00 0.00 76 1024.4
20260906010015 58 11 2.0 3.0 0.00 0.00 0.00 75 1024.6
20260906004515 58 11 1.0 2.0 0.00 0.00 0.00 74 1024.7
20260906003014 58 11 2.0 3.0 0.00 0.00 0.00 73 1024.6
20260906001513 59 11 2.0 4.0 0.00 0.00 0.00 73 1024.7
20260906000011 59 13 3.0 5.0 0.00 0.00 0.00 72 1024.6
20260905234508 60 17 2.0 4.0 0.00 0.00 0.00 70 1024.6
20260905233007 60 17 3.0 4.0 0.00 0.00 0.00 70 1024.7
20260905231506 60 17 2.0 3.0 0.00 0.00 0.00 70 1024.5
20260905230005 60 17 2.0 4.0 0.00 0.00 0.00 69 1024.7
20260905224506 61 18 2.0 3.0 0.00 0.00 0.00 69 1024.7
20260905223007 61 19 1.0 3.0 0.00 0.00 0.00 68 1024.9
20260905221503 62 19 1.0 4.0 0.00 0.00 0.00 67 1024.8
20260905220111 62 19 2.0 5.0 0.00 0.00 0.00 66 1024.5
20260905214516 62 19 1.0 3.0 0.00 0.00 0.00 66 1024.5
20260905213015 63 19 2.0 4.0 0.00 0.00 0.00 64 1024.7
20260905211514 64 19 1.0 3.0 0.00 0.00 0.00 63 1024.8
20260905210013 64 19 0.0 3.0 0.00 0.00 0.00 62 1024.7
20260905204511 65 19 1.0 4.0 0.00 0.00 0.00 60 1024.4
20260905203010 66 19 2.0 4.0 0.00 0.00 0.00 59 1024.3
20260905201507 66 19 2.0 4.0 0.00 0.00 0.00 58 1024.2
20260905200008 67 21 3.0 5.0 0.00 0.00 0.00 56 1024.3
20260905194506 68 19 3.0 5.0 0.00 0.00 0.00 54 1024.2
20260905193004 69 24 3.0 5.0 0.00 0.00 0.00 52 1024.1
20260905191505 70 25 2.0 5.0 0.00 0.00 0.00 51 1023.9
20260905190008 70 21 2.0 5.0 0.00 0.00 0.00 50 1023.8
20260905184603 71 22 1.0 5.0 0.00 0.00 0.00 49 1023.8
20260905183023 72 26 4.0 6.0 0.00 0.00 0.00 48 1023.7
20260905181524 73 36 2.0 6.0 0.00 0.00 0.00 46 1023.7
20260905180113 74 5 2.0 4.0 0.00 0.00 0.00 44 1023.8
20260905174513 75 355 2.0 5.0 0.00 0.00 0.00 41 1023.8
20260905173011 76 15 2.0 6.0 0.00 0.00 0.00 41 1023.6